Weather History for Renton, WA

Change the Weather History Date:

Sunday, December 29, 2013

  Actual Average Record
Temperature  
Mean Temperature 38 °F -  
Max Temperature 43 °F 44 °F 57 °F (1997)
Min Temperature 33 °F 35 °F 27 °F (2003)
Degree Days  
Heating Degree Days 27    
Moisture  
Dew Point 36 °F    
Average Humidity 97    
Maximum Humidity 100    
Minimum Humidity 82    
Precipitation  
Precipitation 0.00 in - - ()
Sea Level Pressure  
Sea Level Pressure 30.44 in    
Wind  
Wind Speed 1 mph (SE)    
Max Wind Speed 5 mph    
Max Gust Speed -    
Visibility 4 miles    
Events Fog    
Averages and records for this station are not official NWS values.
T = Trace of Precipitation, MM = Missing Value Source: NWS Daily Summary

Daily Weather History Graph

Daily Weather History Graph

Search for Another Location

Airport:

Trip Planner

Search our weather history database for the weather conditions in past years. The results will help you decide how hot, cold, wet, or windy it might be!

Date:

Astronomy

Dec. 29, 2013 Rise Set
Actual Time 7:56 AM PST 4:25 PM PST
Civil Twilight 7:20 AM PST 5:01 PM PST
Nautical Twilight 6:41 AM PST 5:40 PM PST
Astronomical Twilight 6:04 AM PST 6:18 PM PST
Moon 4:40 AM PST (12/29) 2:13 PM PST (12/29)
Length of Visible Light 9h 41m
Length of Day
8h 29m
Waning Crescent, 10% of the Moon is Illuminated
Dec 29
Waning Crescent
Jan 1
New
Jan 7
First Quarter
Jan 15
Full
Jan 23
Last Quarter

Hourly Weather History & Observations

Time (PST) Temp. Windchill Dew Point Humidity Pressure Visibility Wind Dir Wind Speed Gust Speed Precip Events Conditions
12:01 AM 35.6 °F 32.8 °F 35.6 °F 100% 30.50 in 0.8 mi East 3.5 mph - N/A   Overcast
12:32 AM 35.6 °F - 35.6 °F 100% 30.48 in 2.0 mi Calm Calm - N/A   Overcast
12:53 AM 35.1 °F - 35.1 °F 100% 30.49 in 1.8 mi Calm Calm - N/A   Overcast
1:04 AM 35.6 °F - 35.6 °F 100% 30.48 in 0.5 mi Calm Calm - N/A Fog Fog
1:53 AM 35.1 °F - 35.1 °F 100% 30.50 in 0.5 mi Calm Calm - N/A Fog Fog
2:29 AM 35.6 °F 32.8 °F 35.6 °F 100% 30.48 in 1.5 mi South 3.5 mph - N/A   Overcast
2:49 AM 35.6 °F 32.8 °F 35.6 °F 100% 30.48 in 0.5 mi SSE 3.5 mph - N/A Fog Fog
2:53 AM 35.1 °F 32.2 °F 35.1 °F 100% 30.50 in 0.2 mi SE 3.5 mph - N/A Fog Fog
3:40 AM 33.8 °F - 33.8 °F 100% 30.48 in 2.5 mi Calm Calm - N/A   Overcast
3:53 AM 34.0 °F 31.0 °F 34.0 °F 100% 30.49 in 2.5 mi ESE 3.5 mph - N/A   Overcast
4:02 AM 33.8 °F 30.8 °F 33.8 °F 100% 30.47 in 1.8 mi ESE 3.5 mph - N/A   Overcast
4:09 AM 33.8 °F 29.6 °F 33.8 °F 100% 30.47 in 2.5 mi ESE 4.6 mph - N/A   Overcast
4:18 AM 33.8 °F 30.8 °F 33.8 °F 100% 30.47 in 1.0 mi ESE 3.5 mph - N/A   Overcast
4:30 AM 33.8 °F - 33.8 °F 100% 30.46 in 3.0 mi Calm Calm - N/A   Overcast
4:53 AM 34.0 °F - 34.0 °F 100% 30.47 in 6.0 mi Calm Calm - N/A   Overcast
5:02 AM 33.8 °F - 33.8 °F 100% 30.45 in 8.0 mi Calm Calm - N/A   Overcast
5:27 AM 33.8 °F 30.8 °F 33.8 °F 100% 30.44 in 8.0 mi SE 3.5 mph - N/A   Scattered Clouds
5:36 AM 33.8 °F 30.8 °F 33.8 °F 100% 30.43 in 8.0 mi SSE 3.5 mph - N/A   Mostly Cloudy
5:53 AM 34.0 °F - 34.0 °F 100% 30.44 in 5.0 mi Calm Calm - N/A   Overcast
6:53 AM 34.0 °F - 34.0 °F 100% 30.44 in 5.0 mi Calm Calm - N/A   Overcast
7:02 AM 33.8 °F - 33.8 °F 100% 30.43 in 1.8 mi Calm Calm - N/A   Overcast
7:27 AM 35.6 °F - 35.6 °F 100% 30.43 in 0.8 mi Calm Calm - N/A   Overcast
7:53 AM 35.1 °F - 35.1 °F 100% 30.45 in 0.8 mi Calm Calm - N/A   Mist
8:39 AM 35.6 °F - 35.6 °F 100% 30.44 in 1.0 mi Calm Calm - N/A   Overcast
8:53 AM 35.1 °F 32.2 °F 35.1 °F 100% 30.45 in 1.0 mi SSE 3.5 mph - N/A   Overcast
9:00 AM 35.6 °F - 35.6 °F 100% 30.45 in 2.0 mi Calm Calm - N/A   Overcast
9:53 AM 36.0 °F - 36.0 °F 100% 30.46 in 5.0 mi Calm Calm - 0.00 in   Overcast
10:53 AM 37.9 °F 35.5 °F 37.0 °F 97% 30.45 in 8.0 mi ESE 3.5 mph - N/A   Overcast
11:06 AM 39.2 °F 37.0 °F 37.4 °F 93% 30.43 in 5.0 mi East 3.5 mph - N/A   Overcast
11:53 AM 39.9 °F - 37.0 °F 89% 30.43 in 5.0 mi Calm Calm - N/A   Overcast
12:53 PM 41.0 °F - 37.9 °F 89% 30.41 in 6.0 mi Calm Calm - N/A   Overcast
1:53 PM 42.1 °F - 37.9 °F 85% 30.40 in 6.0 mi Calm Calm - N/A   Overcast
2:53 PM 43.0 °F - 37.9 °F 82% 30.39 in 6.0 mi Calm Calm - N/A   Haze
3:53 PM 43.0 °F - 37.9 °F 82% 30.38 in 7.0 mi Calm Calm - N/A   Overcast
4:53 PM 42.1 °F - 39.0 °F 89% 30.38 in 7.0 mi Calm Calm - N/A   Overcast
5:53 PM 41.0 °F - 39.0 °F 93% 30.37 in 6.0 mi Calm Calm - N/A   Overcast
6:53 PM 42.1 °F - 39.0 °F 89% 30.37 in 8.0 mi Calm Calm - N/A   Overcast
7:53 PM 39.9 °F - 37.9 °F 93% 30.37 in 8.0 mi Calm Calm - N/A   Scattered Clouds
8:53 PM 39.9 °F - 39.0 °F 97% 30.35 in 7.0 mi Calm Calm - N/A   Overcast
9:53 PM 39.0 °F - 39.0 °F 100% 30.35 in 6.0 mi Calm Calm - N/A   Partly Cloudy
10:53 PM 39.0 °F - 37.9 °F 96% 30.34 in 4.0 mi Calm Calm - N/A   Clear
11:53 PM 37.9 °F - 37.0 °F 97% 30.35 in 5.0 mi Calm Calm - N/A   Clear